Change the Weather History Date:

Thursday, April 25, 2013

  Actual Average (KRHI) Record (KRHI)
Temperature  
Mean Temperature 36 °F 46 °F  
Max Temperature 44 °F 58 °F 84 °F (1990)
Min Temperature 28 °F 34 °F 19 °F (1972)
Degree Days  
Heating Degree Days 29 19  
Month to date heating degree days 613  
Since 1 July heating degree days 8408  
Cooling Degree Days 0 0  
Month to date cooling degree days 0  
Year to date cooling degree days 0  
Moisture  
Dew Point 27 °F    
Average Humidity 76    
Maximum Humidity 100    
Minimum Humidity 39    
Precipitation  
Precipitation 0.02 in 0.10 in 0.70 in (1950)
Month to date precipitation 2.08  
Year to date precipitation 5.69  
Snow  
Snow 0.00 in - 5.30 in (1909)
Month to date snowfall  
Since 1 July snowfall  
Snow Depth -    
Sea Level Pressure  
Sea Level Pressure 30.07 in    
Wind  
Wind Speed 5 mph (West)    
Max Wind Speed 10 mph    
Max Gust Speed 20 mph    
Visibility 9 miles    
Events Rain , Snow    
T = Trace of Precipitation, MM = Missing Value Source: NWS Daily Summary

Daily Weather History Graph

Daily Weather History Graph

Search for Another Location

Airport or City:

Trip Planner

Search our weather history database for the weather conditions in past years. The results will help you decide how hot, cold, wet, or windy it might be!

Date:

Astronomy

Apr. 25, 2013 Rise Set
Actual Time 5:56 AM CDT 7:58 PM CDT
Civil Twilight 5:24 AM CDT 8:30 PM CDT
Nautical Twilight 4:45 AM CDT 9:10 PM CDT
Astronomical Twilight 4:01 AM CDT 9:54 PM CDT
Moon 8:13 PM CDT (4/25) 5:39 AM CDT (4/25)
Length of Visible Light 15h 06m
Length of Day
14h 02m
Full, 100% of the Moon is Illuminated
Apr 25
Full
Apr 25
Full
May 2
Last Quarter
May 9
New
May 17
First Quarter

Hourly Weather History & Observations

Time (CDT) Temp. Windchill Dew Point Humidity Pressure Visibility Wind Dir Wind Speed Gust Speed Precip Events Conditions
12:15 AM 32.0 °F 26.4 °F 32.0 °F 100% 29.88 in 1.0 mi WNW 5.8 mph - N/A Snow Snow
12:35 AM 32.0 °F 28.7 °F 32.0 °F 100% 29.88 in 1.5 mi WNW 3.5 mph - N/A Snow Light Snow
12:55 AM 32.0 °F 28.7 °F 32.0 °F 100% 29.88 in 3.0 mi West 3.5 mph - N/A Rain Light Rain
1:15 AM 32.0 °F 28.7 °F 32.0 °F 100% 29.89 in 7.0 mi West 3.5 mph - N/A   Overcast
1:35 AM 32.0 °F 28.7 °F 32.0 °F 100% 29.89 in 10.0 mi West 3.5 mph - N/A   Overcast
1:55 AM 32.0 °F 27.5 °F 32.0 °F 100% 29.90 in 10.0 mi WNW 4.6 mph - N/A   Mostly Cloudy
2:15 AM 32.0 °F 27.5 °F 32.0 °F 100% 29.90 in 10.0 mi WNW 4.6 mph - N/A   Mostly Cloudy
2:35 AM 32.0 °F 27.5 °F 30.2 °F 93% 29.90 in 10.0 mi West 4.6 mph - N/A   Mostly Cloudy
2:55 AM 32.0 °F 27.5 °F 30.2 °F 93% 29.90 in 10.0 mi WNW 4.6 mph - N/A   Overcast
3:15 AM 32.0 °F 27.5 °F 30.2 °F 93% 29.91 in 10.0 mi WNW 4.6 mph - N/A   Overcast
3:35 AM 32.0 °F 27.5 °F 30.2 °F 93% 29.92 in 10.0 mi WNW 4.6 mph - N/A   Overcast
3:55 AM 32.0 °F 27.5 °F 30.2 °F 93% 29.92 in 10.0 mi WNW 4.6 mph - N/A   Overcast
4:15 AM 32.0 °F 28.7 °F 30.2 °F 93% 29.93 in 10.0 mi WNW 3.5 mph - N/A   Overcast
4:35 AM 32.0 °F 28.7 °F 30.2 °F 93% 29.93 in 10.0 mi WNW 3.5 mph - N/A   Overcast
4:55 AM 30.2 °F 25.4 °F 28.4 °F 93% 29.95 in 10.0 mi West 4.6 mph - N/A   Mostly Cloudy
5:15 AM 30.2 °F 24.3 °F 28.4 °F 93% 29.95 in 10.0 mi West 5.8 mph - N/A   Mostly Cloudy
5:35 AM 30.2 °F 25.4 °F 28.4 °F 93% 29.96 in 7.0 mi West 4.6 mph - N/A   Scattered Clouds
5:55 AM 30.2 °F 25.4 °F 28.4 °F 93% 29.97 in 7.0 mi West 4.6 mph - N/A   Scattered Clouds
6:15 AM 30.2 °F - 28.4 °F 93% 29.98 in 7.0 mi Calm Calm - N/A   Mostly Cloudy
6:35 AM 30.2 °F 26.7 °F 28.4 °F 93% 29.98 in 7.0 mi West 3.5 mph - N/A   Overcast
6:55 AM 30.2 °F 25.4 °F 28.4 °F 93% 29.99 in 7.0 mi West 4.6 mph - N/A   Scattered Clouds
7:15 AM 30.2 °F 25.4 °F 28.4 °F 93% 30.01 in 7.0 mi West 4.6 mph - N/A   Clear
7:35 AM 30.2 °F 25.4 °F 28.4 °F 93% 30.01 in 7.0 mi West 4.6 mph - N/A   Clear
7:55 AM 32.0 °F 26.4 °F 30.2 °F 93% 30.02 in 7.0 mi West 5.8 mph - 0.01 in   Clear
8:15 AM 32.0 °F 26.4 °F 30.2 °F 93% 30.04 in 7.0 mi West 5.8 mph - N/A   Clear
8:35 AM 32.0 °F 26.4 °F 30.2 °F 93% 30.05 in 10.0 mi West 5.8 mph - N/A   Clear
8:55 AM 32.0 °F 28.7 °F 30.2 °F 93% 30.05 in 10.0 mi West 3.5 mph - N/A   Scattered Clouds
9:15 AM 33.8 °F 28.6 °F 32.0 °F 93% 30.06 in 10.0 mi West 5.8 mph - N/A   Scattered Clouds
9:35 AM 33.8 °F 30.8 °F 30.2 °F 87% 30.07 in 10.0 mi WSW 3.5 mph - N/A   Scattered Clouds
9:55 AM 33.8 °F 27.7 °F 32.0 °F 93% 30.08 in 10.0 mi West 6.9 mph - N/A   Mostly Cloudy
10:15 AM 35.6 °F 29.9 °F 32.0 °F 87% 30.08 in 10.0 mi West 6.9 mph - N/A   Mostly Cloudy
10:35 AM 35.6 °F 29.2 °F 30.2 °F 81% 30.09 in 10.0 mi West 8.1 mph - N/A   Mostly Cloudy
10:55 AM 37.4 °F 30.8 °F 30.2 °F 75% 30.10 in 10.0 mi West 9.2 mph 16.1 mph N/A   Mostly Cloudy
11:15 AM 37.4 °F 30.8 °F 30.2 °F 75% 30.11 in 10.0 mi West 9.2 mph 17.3 mph N/A   Mostly Cloudy
11:55 AM 37.4 °F 32.1 °F 30.2 °F 75% 30.12 in 10.0 mi WSW 6.9 mph - N/A   Mostly Cloudy
12:15 PM 37.4 °F 30.8 °F 30.2 °F 75% 30.12 in 10.0 mi West 9.2 mph - N/A   Overcast
12:35 PM 39.2 °F 32.5 °F 28.4 °F 65% 30.13 in 10.0 mi West 10.4 mph - N/A   Overcast
12:55 PM 39.2 °F 34.2 °F 30.2 °F 70% 30.13 in 10.0 mi West 6.9 mph - N/A   Scattered Clouds
1:15 PM 41.0 °F 35.8 °F 28.4 °F 61% 30.13 in 10.0 mi West 8.1 mph - N/A   Mostly Cloudy
1:55 PM 42.8 °F 37.5 °F 24.8 °F 49% 30.14 in 10.0 mi SW 9.2 mph 19.6 mph N/A   Mostly Cloudy
2:15 PM 42.8 °F 37.0 °F 24.8 °F 49% 30.14 in 10.0 mi West 10.4 mph 16.1 mph N/A   Mostly Cloudy
2:35 PM 42.8 °F 38.6 °F 23.0 °F 46% 30.14 in 10.0 mi WSW 6.9 mph 19.6 mph N/A   Mostly Cloudy
2:55 PM 42.8 °F 39.3 °F 23.0 °F 46% 30.13 in 10.0 mi SW 5.8 mph - N/A   Mostly Cloudy
3:15 PM 42.8 °F 38.6 °F 23.0 °F 46% 30.13 in 10.0 mi SSW 6.9 mph - N/A   Mostly Cloudy
3:35 PM 42.8 °F 40.1 °F 24.8 °F 49% 30.14 in 10.0 mi West 4.6 mph 9.2 mph N/A   Scattered Clouds
3:55 PM 42.8 °F - 23.0 °F 46% 30.14 in 10.0 mi Calm Calm - N/A   Scattered Clouds
4:15 PM 44.6 °F 41.4 °F 23.0 °F 43% 30.14 in 10.0 mi WSW 5.8 mph - N/A   Scattered Clouds
4:35 PM 44.6 °F 42.2 °F 21.2 °F 39% 30.14 in 10.0 mi West 4.6 mph 19.6 mph 0.01 in   Clear
4:55 PM 44.6 °F 40.2 °F 23.0 °F 43% 30.14 in 10.0 mi West 8.1 mph - 0.01 in   Scattered Clouds
5:15 PM 44.6 °F 43.1 °F 23.0 °F 43% 30.14 in 10.0 mi SW 3.5 mph - N/A   Scattered Clouds
5:35 PM 44.6 °F 40.7 °F 24.8 °F 46% 30.15 in 10.0 mi South 6.9 mph - N/A   Mostly Cloudy
5:55 PM 42.8 °F 41.1 °F 23.0 °F 46% 30.15 in 10.0 mi SW 3.5 mph - N/A   Scattered Clouds
6:15 PM 42.8 °F 40.1 °F 23.0 °F 46% 30.15 in 10.0 mi SW 4.6 mph - N/A   Clear
6:35 PM 42.8 °F 41.1 °F 23.0 °F 46% 30.16 in 10.0 mi SSW 3.5 mph - N/A   Clear
6:55 PM 41.0 °F 37.1 °F 24.8 °F 53% 30.16 in 10.0 mi SSW 5.8 mph - N/A   Clear
7:15 PM 41.0 °F 39.0 °F 23.0 °F 49% 30.16 in 10.0 mi SSW 3.5 mph - N/A   Clear
7:35 PM 37.4 °F - 24.8 °F 60% 30.16 in 10.0 mi Calm Calm - N/A   Clear
7:55 PM 35.6 °F - 24.8 °F 65% 30.16 in 10.0 mi Calm Calm - N/A   Clear
8:15 PM 35.6 °F - 24.8 °F 65% 30.17 in 10.0 mi Calm Calm - N/A   Clear
8:35 PM 33.8 °F - 24.8 °F 70% 30.18 in 10.0 mi Calm Calm - N/A   Clear
8:55 PM 33.8 °F - 23.0 °F 65% 30.18 in 10.0 mi Calm Calm - N/A   Clear
9:15 PM 32.0 °F - 23.0 °F 69% 30.18 in 10.0 mi Calm Calm - N/A   Clear
9:35 PM 32.0 °F - 23.0 °F 69% 30.18 in 10.0 mi Calm Calm - N/A   Clear
9:55 PM 30.2 °F - 24.8 °F 80% 30.19 in 10.0 mi Calm Calm - N/A   Clear
10:15 PM 30.2 °F - 24.8 °F 80% 30.19 in 10.0 mi Calm Calm - N/A   Clear
10:35 PM 28.4 °F - 24.8 °F 86% 30.19 in 10.0 mi Calm Calm - N/A   Clear
10:55 PM 28.4 °F - 24.8 °F 86% 30.19 in 10.0 mi Calm Calm - N/A   Clear
11:15 PM 28.4 °F - 24.8 °F 86% 30.19 in 10.0 mi Calm Calm - N/A   Clear
11:35 PM 28.4 °F - 24.8 °F 86% 30.19 in 10.0 mi Calm Calm - N/A   Clear
11:55 PM 28.4 °F - 24.8 °F 86% 30.19 in 10.0 mi Calm Calm - N/A   Clear